FW9558 Weather Reports


time (UTC)temp
C
wind
direction
speed
KPH
gust
KPH
rain 1hr
cm
rain 24hr
cm
rain mn
cm
humidity
%
barometer
mb
20260507181542 17 0 0.0 6.4 0.00 0.00 0.00 67 1012.2
20260507180040 17 70 0.0 4.8 0.00 0.00 0.00 66 1012.4
20260507174535 17 0 0.0 6.4 0.00 0.00 0.00 65 1012.4
20260507173045 18 74 1.6 8.0 0.00 0.00 0.00 63 1012.3
20260507171548 18 63 1.6 4.8 0.00 0.00 0.00 62 1012.3
20260507170037 18 121 3.2 9.7 0.00 0.00 0.00 61 1012.2
20260507164544 19 0 1.6 9.7 0.00 0.00 0.00 61 1012.3
20260507163043 18 94 1.6 8.0 0.00 0.00 0.00 61 1012.3
20260507161543 18 112 3.2 6.4 0.00 0.00 0.00 61 1012.5
20260507160047 18 0 0.0 4.8 0.00 0.00 0.00 64 1012.5
20260507154538 18 71 1.6 6.4 0.00 0.00 0.00 61 1012.4
20260507153043 18 123 1.6 6.4 0.00 0.00 0.00 63 1012.6
20260507151535 18 88 1.6 6.4 0.00 0.00 0.00 60 1012.7
20260507150036 18 114 1.6 9.7 0.00 0.00 0.00 61 1012.9
20260507144539 18 99 3.2 6.4 0.00 0.00 0.00 61 1013.0
20260507143042 19 103 3.2 12.9 0.00 0.00 0.00 56 1013.2
20260507141543 19 113 3.2 9.7 0.00 0.00 0.00 60 1013.3
20260507140038 19 82 3.2 11.3 0.00 0.00 0.00 60 1013.3
20260507134536 18 115 4.8 11.3 0.00 0.00 0.00 61 1013.6
20260507133040 18 91 1.6 9.7 0.00 0.00 0.00 61 1013.6
20260507131535 18 79 3.2 11.3 0.00 0.00 0.00 60 1013.7
20260507130050 18 109 3.2 9.7 0.00 0.00 0.00 60 1013.9
20260507124555 17 41 1.6 12.9 0.00 0.00 0.00 63 1013.9
20260507123037 17 144 3.2 9.7 0.00 0.00 0.00 61 1013.9
20260507121540 17 106 3.2 12.9 0.00 0.00 0.00 62 1014.1
20260507120040 17 355 4.8 14.5 0.00 0.00 0.00 63 1014.1
20260507114556 17 140 3.2 9.7 0.00 0.00 0.00 61 1014.2
20260507113038 17 67 3.2 6.4 0.00 0.00 0.00 65 1014.2
20260507111538 17 108 1.6 9.7 0.00 0.00 0.00 67 1014.7
20260507110043 16 112 0.0 9.7 0.00 0.00 0.00 66 1014.7
20260507104549 17 108 1.6 9.7 0.00 0.00 0.00 65 1014.8
20260507103040 17 132 1.6 6.4 0.00 0.00 0.00 66 1015.0
20260507101538 16 0 1.6 8.0 0.00 0.00 0.00 69 1014.9
20260507100042 16 80 1.6 8.0 0.00 0.00 0.00 67 1015.1
20260507094537 16 94 3.2 11.3 0.00 0.00 0.00 69 1014.9
20260507093040 16 106 4.8 12.9 0.00 0.00 0.00 72 1015.0
20260507091544 16 105 1.6 8.0 0.00 0.00 0.00 75 1015.1
20260507090039 15 80 1.6 8.0 0.00 0.00 0.00 77 1015.1
20260507084540 15 69 1.6 6.4 0.00 0.00 0.00 79 1015.1
20260507083036 14 0 1.6 6.4 0.00 0.00 0.00 81 1015.1
20260507081543 13 0 0.0 4.8 0.00 0.00 0.00 83 1015.0
20260507080041 13 0 0.0 0.0 0.00 0.00 0.00 85 1015.0
20260507074532 13 0 1.6 6.4 0.00 0.00 0.00 86 1014.9
20260507073042 12 63 0.0 6.4 0.00 0.00 0.00 89 1014.8
20260507071537 12 0 0.0 4.8 0.00 0.00 0.00 91 1014.8
20260507070037 11 0 0.0 4.8 0.00 0.00 0.00 93 1014.7
20260507064540 11 0 0.0 0.0 0.00 0.00 0.00 93 1014.6
20260507063052 11 0 0.0 0.0 0.00 0.00 0.00 94 1014.6
20260507061546 10 0 0.0 1.6 0.00 0.00 0.00 94 1014.6
20260507060043 10 0 0.0 0.0 0.00 0.00 0.00 94 1014.4
20260507054541 10 0 0.0 0.0 0.00 0.00 0.00 94 1014.3
20260507053040 9 0 0.0 0.0 0.00 0.00 0.00 94 1014.2
20260507051536 9 0 0.0 0.0 0.00 0.00 0.00 93 1014.2
20260507050039 9 0 0.0 0.0 0.00 0.00 0.00 93 1014.1
20260507044542 10 0 0.0 0.0 0.00 0.00 0.00 93 1014.1
20260507043038 10 0 0.0 0.0 0.00 0.00 0.00 93 1014.1
20260507041537 10 0 0.0 0.0 0.00 0.00 0.00 93 1014.0
20260507040041 10 0 0.0 0.0 0.00 0.00 0.00 93 1014.1
20260507034540 10 0 0.0 0.0 0.00 0.00 0.00 93 1014.1
20260507033039 10 0 0.0 0.0 0.00 0.00 0.00 92 1014.0
20260507031537 10 0 0.0 0.0 0.00 0.00 0.00 92 1014.0
20260507030036 10 0 0.0 0.0 0.00 0.00 0.00 92 1014.0
20260507024537 10 0 0.0 0.0 0.00 0.00 0.00 92 1014.0
20260507023035 10 0 0.0 0.0 0.00 0.00 0.00 91 1014.0
20260507021539 10 0 0.0 0.0 0.00 0.00 0.00 91 1013.9
20260507020043 10 0 0.0 0.0 0.00 0.00 0.00 91 1014.0
20260507014635 11 0 0.0 0.0 0.00 0.00 0.00 91 1014.0
20260507014543 11 0 0.0 0.0 0.00 0.00 0.00 91 1014.0
20260507013047 11 0 0.0 0.0 0.00 0.00 0.00 90 1013.9
20260507011536 11 0 0.0 0.0 0.00 0.00 0.00 90 1013.9
20260507010053 11 0 0.0 0.0 0.00 0.00 0.00 90 1013.9
20260507004539 11 0 0.0 0.0 0.00 0.00 0.00 90 1014.0
20260507003039 11 0 0.0 0.0 0.00 0.00 0.00 89 1014.2
20260507001535 11 0 0.0 0.0 0.00 0.00 0.00 89 1014.2
20260507000041 11 0 0.0 0.0 0.00 0.00 0.00 89 1014.2
20260506234541 11 0 0.0 0.0 0.00 0.00 0.00 88 1014.2
20260506233054 11 0 0.0 0.0 0.00 0.00 0.00 88 1014.1
20260506231541 12 0 0.0 0.0 0.00 0.00 0.00 87 1014.2
20260506230037 12 0 0.0 0.0 0.00 0.00 0.00 87 1014.2
20260506224536 12 0 0.0 0.0 0.00 0.00 0.00 86 1014.2
20260506223040 12 0 0.0 0.0 0.00 0.00 0.00 86 1014.1
20260506221540 12 0 0.0 0.0 0.00 0.00 0.00 85 1014.2
20260506220041 12 0 0.0 0.0 0.00 0.00 0.00 85 1014.1
20260506214538 12 0 0.0 0.0 0.00 0.00 0.00 85 1014.2
20260506213037 12 0 0.0 0.0 0.00 0.00 0.00 84 1014.1
20260506211536 12 0 0.0 0.0 0.00 0.00 0.00 84 1014.0
20260506210041 12 0 0.0 0.0 0.00 0.00 0.00 84 1014.0
20260506204539 12 0 0.0 0.0 0.00 0.00 0.00 83 1013.8
20260506203035 12 0 0.0 0.0 0.00 0.00 0.00 82 1013.8
20260506201537 12 0 0.0 0.0 0.00 0.00 0.00 82 1013.6
20260506200041 12 0 0.0 0.0 0.00 0.00 0.00 82 1013.5
20260506194546 12 0 0.0 0.0 0.00 0.00 0.00 82 1013.2
20260506193038 12 0 0.0 1.6 0.00 0.00 0.00 82 1013.1
20260506191635 13 0 0.0 4.8 0.00 0.00 0.00 82 1012.8
20260506191539 13 0 0.0 4.8 0.00 0.00 0.00 82 1012.8
20260506190542 13 22 0.0 4.8 0.00 0.00 0.00 82 1012.7
20260506184536 13 0 0.0 4.8 0.00 0.00 0.00 81 1012.6
20260506183041 13 5 1.6 6.4 0.00 0.00 0.00 80 1012.5